STARLINK-11163, 60047

Orbit data source: Space-Track

STARLINK-11163, 60047 is a payload satellite owned by SpaceX/Seattle (US) in LEO that was launched on Sat, 08 Jun 2024 UTC via an FALCON 9 launch vehicle from the Air Force Western Test Range (AFWTR). Payload-class satellites include a variety of spacecraft equipped with specific instruments for various scientific and technological missions. These include communications satellites like Starlink; space stations such as the ISS; scientific satellites like the Hubble; Earth observation satellites from companies like Planet Labs, Umbra, and HawkEye 360; GPS; miniature CubeSats for education and research; and military/defense satellites.

Loading next visibility...
Identifier
60047, 2024-112K
Orbit
LEO
Country
Flag of USUS
Related business
Manufacturer
SpaceX/Seattle
Mission
Operational Commercial Communications
Bus & Motor
STARLINK V2MD, Unknown motor
Mass
960 kg wet, ~910 kg dry
Launch date (UTC)
2024-06-08 (2 years ago)
Launch vehicle
FALCON 9
Launch site
Air Force Western Test Range (AFWTR)
Object type
Payload
Rocket body
Debris
Shape & HBR
Box + 2 Pan, 18.1 m
Radar Cross Section
36.964 m², Large (>1 m²)

Expand to show TLE details & history
Last TLE update: 2 days ago

TLE from 2 days ago
0 STARLINK-11163
1 60047U 24112K   26170.17975536  .00002096  00000-0  22165-4 0  9993
2 60047  53.1601 125.7791 0001218  88.8745 271.2412 15.69694798116921
Epoch: 2026-06-19T04:18Z
TLE epoch observation values (Epoch: 2026-06-19T04:18:50.863Z)
Latitude
-0.00004°
Longitude
153.6547°
Altitude
360.668 km
Speed
7.694 km/s
True Right ascension
08h 23m 06s
True Declination
0° 00' 00"
Sunlit
Object was in daylight at epoch
Visualization orbit readout
Latitude
Unknown
Longitude
Unknown
Altitude
Unknown
Speed
Unknown
Apparent Right ascension
Unknown
Apparent Declination
Unknown
Sunlit
N/A
Visualization observer readout
Local Sidereal Time
08:32:29
Azimuth
Unknown
Elevation
Unknown
Doppler factor
Unknown
Orbital elements
Apogee altitude
360.852 km
Perigee altitude
359.21 km
Semi-major axis
6,738.168 km
Eccentricity
0.00012
Inclination
53.1601°
RAAN
125.7791°
Arg. of periapsis
88.8745°
True anomaly
271.22725°
Mean anomaly
271.2412°
Eccentric anomaly
271.23422°
Mean motion
3.92401 °/min
Orbital period
91.74 mins
BSTAR
0.000022165
Loading maneuver chart data...
Computing Atmospheric mass density...
Loading historical data...
Loading historical data...
Loading historical data...
Loading historical data...
Loading historical data...
Loading historical data...
Loading historical data...

Documentation

Showing up to 5 results
|